Showing default

YAOGAN 22, 40275

Orbit data source: Space-Track

YAOGAN 22, 40275 is a payload satellite owned by PLA GAD (CN) in SSO that was launched on Mon, 20 Oct 2014 UTC via a CHANG ZHENG 4C launch vehicle from the Taiyaun Space Center, China (TSC). Payload-class satellites include a variety of spacecraft equipped with specific instruments for various scientific and technological missions. These include communications satellites like Starlink; space stations such as the ISS; scientific satellites like the Hubble; Earth observation satellites from companies like Planet Labs, Umbra, and HawkEye 360; GPS; miniature CubeSats for education and research; and military/defense satellites.

Loading next visibility...
Identifier
40275, 2014-063A
Orbit
SSO
Country
Flag of CNCN / PRC
Related business
Manufacturer
SAST
Mission
Operational Defense Imaging
Bus & Motor
JB-9, Unknown motor
Mass
1,040 kg wet, 1,040 kg dry
Launch date (UTC)
2014-10-20 (12 years ago)
Launch vehicle
CHANG ZHENG 4C
Launch site
Taiyaun Space Center, China (TSC)
Object type
Payload
Rocket body
Debris
Shape & HBR
Box + 2 Pan, 2.5 m
Radar Cross Section
4.795 m², Large (>1 m²)

Expand to show TLE details & history
Last TLE update: 2 days ago

TLE from 2 days ago
0 YAOGAN 22
1 40275U 14063A   26171.37983304 -.00000017  00000-0  79445-4 0  9998
2 40275 100.7729 322.7060 0006417 178.2010 181.9125 13.15531032560230
Epoch: 2026-06-20T09:06Z
TLE epoch observation values (Epoch: 2026-06-20T09:06:57.574Z)
Latitude
-0.00005°
Longitude
-82.62918°
Altitude
1,209.4 km
Speed
7.247 km/s
True Right ascension
21h 30m 49s
True Declination
0° 00' 00"
Sunlit
Object was in partial shadow at epoch
Visualization orbit readout
Latitude
Unknown
Longitude
Unknown
Altitude
Unknown
Speed
Unknown
Apparent Right ascension
Unknown
Apparent Declination
Unknown
Sunlit
N/A
Visualization observer readout
Local Sidereal Time
23:26:59
Azimuth
Unknown
Elevation
Unknown
Doppler factor
Unknown
Orbital elements
Apogee altitude
1,204.105 km
Perigee altitude
1,194.38 km
Semi-major axis
7,577.38 km
Eccentricity
0.00064
Inclination
100.7729°
RAAN
322.706°
Arg. of periapsis
178.201°
True anomaly
181.91005°
Mean anomaly
181.9125°
Eccentric anomaly
181.91127°
Mean motion
3.29052 °/min
Orbital period
109.41 mins
BSTAR
0.000079445
Loading maneuver chart data...
Computing Atmospheric mass density...
Loading historical data...
Loading historical data...
Loading historical data...
Loading historical data...
Loading historical data...
Loading historical data...
Loading historical data...
Other satellites on launch #63 in the year 2014 (2014-10-20 UTC)

Documentation

Showing up to 5 results
|